PSW9901 VHHX-UNNT

Flight info

Callsign PSW9901
Flight time N/A
Altitude 30100
Route BEKOL DCT DYG/K0930S0980 DCT YBL DCT VGA/K0904S1040 DCT US/K0906F340 DCT BEGIL BEGIL1H
Aircraft B742/H-SDFHIRWXY/L

Departure

Time 2026-05-08 06:41
Airport Hong Kong International Airport Kai Tak (VHHX)

Arrival

Time N/A
Airport Novosibirsk Tolmachevo Airport (UNNT)
Time Latitude Longitude Altitude Speed Heading
2026-05-08 06:31 22.32674 114.19630 21 ft 0 kts 312°
2026-05-08 06:33 22.32674 114.19629 21 ft 0 kts 311°
2026-05-08 06:33 22.32675 114.19629 21 ft 0 kts 311°
2026-05-08 06:34 22.32682 114.19619 21 ft 8 kts 310°
2026-05-08 06:34 22.32707 114.19585 22 ft 1 kts 289°
2026-05-08 06:35 22.32708 114.19580 21 ft 1 kts 277°
2026-05-08 06:35 22.32707 114.19574 22 ft 1 kts 259°
2026-05-08 06:35 22.32684 114.19516 21 ft 15 kts 231°
2026-05-08 06:35 22.32593 114.19435 21 ft 15 kts 184°
2026-05-08 06:36 22.32495 114.19499 21 ft 20 kts 133°
2026-05-08 06:36 22.32380 114.19625 21 ft 27 kts 137°
2026-05-08 06:36 22.32226 114.19783 21 ft 34 kts 134°
2026-05-08 06:36 22.32045 114.19981 21 ft 40 kts 135°
2026-05-08 06:37 22.31842 114.20213 21 ft 45 kts 135°
2026-05-08 06:37 22.31629 114.20454 21 ft 46 kts 134°
2026-05-08 06:37 22.31403 114.20706 21 ft 46 kts 133°
2026-05-08 06:37 22.31192 114.20948 21 ft 43 kts 133°
2026-05-08 06:38 22.30994 114.21173 21 ft 40 kts 130°
2026-05-08 06:38 22.30820 114.21395 21 ft 38 kts 133°
2026-05-08 06:38 22.30647 114.21578 21 ft 33 kts 133°
2026-05-08 06:38 22.30526 114.21683 21 ft 13 kts 186°
2026-05-08 06:39 22.30489 114.21649 21 ft 4 kts 255°
2026-05-08 06:39 22.30484 114.21627 21 ft 1 kts 265°
2026-05-08 06:39 22.30485 114.21614 21 ft 6 kts 272°
2026-05-08 06:39 22.30498 114.21583 22 ft 0 kts 314°
2026-05-08 06:40 22.30501 114.21580 21 ft 5 kts 314°
2026-05-08 06:41 22.30665 114.21396 21 ft 67 kts 314°
2026-05-08 06:41 22.31147 114.20847 22 ft 135 kts 313°
2026-05-08 06:41 22.31947 114.19933 41 ft 197 kts 314°
2026-05-08 06:41 22.32914 114.18781 693 ft 211 kts 309°
2026-05-08 06:42 22.33503 114.17331 1742 ft 217 kts 285°
2026-05-08 06:42 22.33573 114.15633 2574 ft 239 kts 266°
2026-05-08 06:42 22.32987 114.13921 3497 ft 256 kts 241°
2026-05-08 06:42 22.31857 114.12361 4602 ft 276 kts 228°
2026-05-08 06:43 22.30437 114.10890 5934 ft 279 kts 221°
2026-05-08 06:43 22.29012 114.09599 7730 ft 264 kts 219°
2026-05-08 06:43 22.27569 114.08335 8608 ft 277 kts 219°
2026-05-08 06:43 22.26046 114.06981 9343 ft 286 kts 220°
2026-05-08 06:44 22.24529 114.05591 10255 ft 287 kts 219°
2026-05-08 06:44 22.22819 114.04542 11152 ft 283 kts 199°
2026-05-08 06:44 22.20885 114.04257 11878 ft 285 kts 177°
2026-05-08 06:44 22.18968 114.04787 12514 ft 288 kts 154°
2026-05-08 06:45 22.17374 114.06072 13149 ft 289 kts 132°
2026-05-08 06:45 22.16345 114.07925 13786 ft 292 kts 110°
2026-05-08 06:45 22.16034 114.10094 14424 ft 299 kts 88°
2026-05-08 06:45 22.16500 114.12301 15069 ft 309 kts 67°
2026-05-08 06:46 22.17622 114.14318 15703 ft 322 kts 54°
2026-05-08 06:46 22.19050 114.16239 16243 ft 337 kts 50°